Weather History for Kenansville, NC

Change the Weather History Date:

Monday, May 27, 2013

  Actual Average (KGSB) Record (KGSB)
Temperature  
Mean Temperature 62 °F -  
Max Temperature 79 °F 82 °F 91 °F (1998)
Min Temperature 44 °F 62 °F 49 °F (2013)
Degree Days  
Heating Degree Days 4    
Growing Degree Days 12 (Base 50)    
Moisture  
Dew Point 46 °F    
Average Humidity 61    
Maximum Humidity 98    
Minimum Humidity 24    
Precipitation  
Precipitation 0.00 in - - ()
Sea Level Pressure  
Sea Level Pressure 30.26 in    
Wind  
Wind Speed 1 mph (SE)    
Max Wind Speed 6 mph    
Max Gust Speed -    
Visibility 10 miles    
Events      
Averages and records for this station are not official NWS values.
T = Trace of Precipitation, MM = Missing Value Source: NWS Daily Summary

Daily Weather History Graph

Daily Weather History Graph

Search for Another Location

Airport:

Trip Planner

Search our weather history database for the weather conditions in past years. The results will help you decide how hot, cold, wet, or windy it might be!

Date:

Astronomy

May. 27, 2013 Rise Set
Actual Time 6:00 AM EDT 8:17 PM EDT
Civil Twilight 5:32 AM EDT 8:46 PM EDT
Nautical Twilight 4:56 AM EDT 9:22 PM EDT
Astronomical Twilight 4:18 AM EDT 10:00 PM EDT
Moon 10:58 PM EDT (5/27) 8:34 AM EDT (5/27)
Length of Visible Light 15h 14m
Length of Day
14h 16m
Waning Gibbous, 91% of the Moon is Illuminated
May 27
Waning Gibbous
May 31
Last Quarter
Jun 8
New
Jun 16
First Quarter
Jun 23
Full

Hourly Weather History & Observations

Time (EDT) Temp. Dew Point Humidity Pressure Visibility Wind Dir Wind Speed Gust Speed Precip Events Conditions
12:15 AM 49.1 °F 47.7 °F 95% 30.25 in 10.0 mi Calm Calm - N/A   Clear
12:35 AM 48.6 °F 47.3 °F 95% 30.25 in 10.0 mi Calm Calm - N/A   Clear
12:55 AM 48.2 °F 47.1 °F 96% 30.25 in 10.0 mi Calm Calm - N/A   Clear
1:15 AM 47.7 °F 46.6 °F 96% 30.25 in 10.0 mi Calm Calm - N/A   Clear
1:35 AM 48.4 °F 47.3 °F 96% 30.25 in 10.0 mi Calm Calm - N/A   Clear
1:55 AM 47.7 °F 46.8 °F 97% 30.25 in 10.0 mi Calm Calm - N/A   Clear
2:15 AM 47.5 °F 46.6 °F 97% 30.25 in 10.0 mi Calm Calm - N/A   Clear
2:35 AM 46.9 °F 46.0 °F 97% 30.25 in 10.0 mi Calm Calm - N/A   Clear
2:55 AM 46.6 °F 45.7 °F 97% 30.25 in 7.0 mi Calm Calm - N/A   Clear
3:15 AM 46.4 °F 45.5 °F 97% 30.25 in 10.0 mi Calm Calm - N/A   Clear
3:35 AM 46.4 °F 45.5 °F 97% 30.25 in 10.0 mi Calm Calm - N/A   Clear
3:55 AM 45.9 °F 45.1 °F 97% 30.25 in 7.0 mi Calm Calm - N/A   Clear
4:15 AM 45.7 °F 45.0 °F 97% 30.25 in 7.0 mi Calm Calm - N/A   Clear
4:35 AM 45.3 °F 44.6 °F 97% 30.25 in 10.0 mi Calm Calm - N/A   Clear
4:55 AM 45.1 °F 44.6 °F 98% 30.25 in 10.0 mi Calm Calm - N/A   Clear
5:15 AM 45.0 °F 44.2 °F 97% 30.26 in 10.0 mi Calm Calm - N/A   Clear
5:35 AM 44.8 °F 44.1 °F 97% 30.27 in 10.0 mi Calm Calm - N/A   Clear
5:55 AM 44.8 °F 44.1 °F 97% 30.27 in 7.0 mi Calm Calm - N/A   Clear
6:15 AM 44.6 °F 43.7 °F 97% 30.28 in 7.0 mi Calm Calm - N/A   Clear
6:35 AM 45.1 °F 44.6 °F 98% 30.29 in 10.0 mi Calm Calm - N/A   Clear
6:55 AM 45.9 °F 45.1 °F 97% 30.30 in 7.0 mi Calm Calm - N/A   Clear
7:15 AM 48.7 °F 48.0 °F 97% 30.30 in 10.0 mi Calm Calm - N/A   Clear
7:35 AM 52.5 °F 51.3 °F 95% 30.30 in 7.0 mi Calm Calm - N/A   Clear
7:55 AM 56.3 °F 54.5 °F 94% 30.30 in 10.0 mi Calm Calm - N/A   Clear
8:15 AM 60.3 °F 55.9 °F 86% 30.30 in 10.0 mi Calm Calm - N/A   Clear
8:35 AM 63.5 °F 53.4 °F 70% 30.30 in 10.0 mi Calm Calm - N/A   Clear
8:55 AM 65.7 °F 52.2 °F 62% 30.30 in 10.0 mi Calm Calm - N/A   Clear
9:15 AM 68.0 °F 51.3 °F 55% 30.31 in 10.0 mi Calm Calm - N/A   Clear
9:35 AM 69.8 °F 50.2 °F 50% 30.31 in 10.0 mi East 3.5 mph - N/A   Clear
9:55 AM 70.3 °F 48.2 °F 45% 30.30 in 10.0 mi ENE 4.6 mph - N/A   Clear
10:15 AM 71.2 °F 45.0 °F 39% 30.30 in 10.0 mi East 3.5 mph - N/A   Clear
10:35 AM 72.0 °F 39.7 °F 31% 30.30 in 10.0 mi Calm Calm - N/A   Clear
10:55 AM 72.5 °F 38.7 °F 29% 30.30 in 10.0 mi ESE 4.6 mph - N/A   Clear
11:15 AM 73.2 °F 41.0 °F 31% 30.30 in 10.0 mi Calm Calm - N/A   Clear
11:35 AM 73.6 °F 40.5 °F 30% 30.30 in 10.0 mi SE 3.5 mph - N/A   Clear
11:55 AM 74.1 °F 42.4 °F 32% 30.29 in 10.0 mi Calm Calm - N/A   Clear
12:15 PM 74.8 °F 41.7 °F 30% 30.30 in 10.0 mi East 4.6 mph - N/A   Clear
12:35 PM 74.8 °F 42.1 °F 31% 30.28 in 10.0 mi East 4.6 mph - N/A   Clear
12:55 PM 75.4 °F 41.9 °F 30% 30.28 in 10.0 mi Calm Calm - N/A   Clear
1:15 PM 76.5 °F 42.1 °F 29% 30.28 in 10.0 mi Calm Calm - N/A   Clear
1:35 PM 76.8 °F 43.3 °F 30% 30.27 in 10.0 mi Calm Calm - N/A   Clear
1:55 PM 77.0 °F 41.4 °F 28% 30.27 in 10.0 mi Calm Calm - N/A   Clear
2:15 PM 78.1 °F 41.4 °F 27% 30.26 in 10.0 mi Calm Calm - N/A   Clear
2:35 PM 77.7 °F 38.8 °F 25% 30.26 in 10.0 mi SW 3.5 mph - N/A   Clear
2:55 PM 77.9 °F 37.8 °F 24% 30.26 in 10.0 mi North 3.5 mph - N/A   Clear
3:15 PM 78.8 °F 39.7 °F 25% 30.25 in 10.0 mi Calm Calm - N/A   Clear
3:35 PM 78.8 °F 39.6 °F 25% 30.24 in 10.0 mi Calm Calm - N/A   Clear
3:55 PM 79.3 °F 41.9 °F 26% 30.24 in 10.0 mi SW 3.5 mph - N/A   Clear
4:15 PM 78.8 °F 39.2 °F 24% 30.23 in 10.0 mi East 4.6 mph - N/A   Clear
4:35 PM 79.3 °F 40.8 °F 25% 30.23 in 10.0 mi ESE 5.8 mph - N/A   Clear
4:55 PM 79.3 °F 40.6 °F 25% 30.22 in 10.0 mi Calm Calm - N/A   Clear
5:15 PM 79.2 °F 41.7 °F 26% 30.21 in 10.0 mi Calm Calm - N/A   Clear
5:35 PM 78.8 °F 41.2 °F 26% 30.20 in 10.0 mi Calm Calm - N/A   Clear
5:55 PM 79.2 °F 41.4 °F 26% 30.20 in 10.0 mi Calm Calm - N/A   Clear
6:15 PM 79.0 °F 42.4 °F 27% 30.19 in 10.0 mi Calm Calm - N/A   Clear
6:35 PM 79.2 °F 42.6 °F 27% 30.20 in 10.0 mi Calm Calm - N/A   Clear
6:55 PM 76.1 °F 51.8 °F 43% 30.20 in 10.0 mi South 4.6 mph - N/A   Clear
7:15 PM 74.5 °F 52.0 °F 45% 30.21 in 10.0 mi SE 5.8 mph - N/A   Clear
7:35 PM 73.2 °F 52.7 °F 48% 30.22 in 10.0 mi Calm Calm - N/A   Clear
7:55 PM 71.6 °F 52.0 °F 50% 30.23 in 10.0 mi SE 3.5 mph - N/A   Clear
8:15 PM 70.0 °F 52.2 °F 53% 30.23 in 10.0 mi SE 3.5 mph - N/A   Clear
8:35 PM 67.6 °F 53.1 °F 59% 30.24 in 10.0 mi Calm Calm - N/A   Clear
8:55 PM 65.8 °F 53.1 °F 63% 30.24 in 10.0 mi SSE 3.5 mph - N/A   Clear
9:15 PM 65.5 °F 52.7 °F 63% 30.24 in 10.0 mi Calm Calm - N/A   Clear
9:35 PM 63.7 °F 53.4 °F 69% 30.24 in 10.0 mi Calm Calm - N/A   Clear
9:55 PM 63.7 °F 52.9 °F 68% 30.24 in 10.0 mi Calm Calm - N/A   Clear
10:15 PM 63.3 °F 53.2 °F 70% 30.24 in 10.0 mi Calm Calm - N/A   Clear
10:35 PM 63.3 °F 52.7 °F 68% 30.24 in 10.0 mi Calm Calm - N/A   Clear
10:55 PM 63.3 °F 53.1 °F 69% 30.24 in 10.0 mi SSE 3.5 mph - N/A   Clear
11:15 PM 63.1 °F 53.1 °F 70% 30.25 in 10.0 mi Calm Calm - N/A   Clear
11:35 PM 60.1 °F 54.0 °F 80% 30.25 in 10.0 mi Calm Calm - N/A   Clear
11:55 PM 59.0 °F 54.3 °F 84% 30.25 in 10.0 mi Calm Calm - N/A   Clear